Weather observations for the past three days for
Fletcher Field, Clarksdale
Imperial (Metric)
Date Time (cdt) Wind (mph) Vis. (mi.) Weather Sky Cond. Temperature (ºF) Relative Humidity Wind Chill (°F) Heat Index (°F) Pressure Precipitation (in)
Air Dwpt 6 hour altimeter (in) sea level (mb) 1 hr 3 hr 6 hr
Max. Min.
23 18:55 S 6 10.00 NULL NULL 80.6 80.6 100% 89 30.08 0.0
23 18:35 S 5 10.00 NULL NULL 80.6 80.6 100% 89 30.08 0.0
23 18:15 SW 6 10.00 NULL NULL 80.6 80.6 100% 89 30.08 0.0
23 17:55 SW 6 10.00 NULL NULL 80.6 80.6 100% 89 30.08 0.0
23 17:35 S 6 10.00 NULL NULL 80.6 80.6 100% 89 30.08 0.0
23 17:15 S 7 10.00 NULL NULL 80.6 80.6 100% 89 30.07 0.0
23 16:55 S 6 10.00 NULL NULL 80.6 80.6 100% 89 30.07 0.0
23 16:35 S 6 10.00 NULL NULL 82.4 82.4 100% 96 30.07 0.0
23 16:15 SW 5 10.00 NULL NULL 80.6 80.6 100% 89 30.07 0.0
23 15:55 S 6 10.00 NULL NULL 80.6 80.6 100% 89 30.06 0.0
23 15:35 W 7 10.00 NULL NULL 82.4 82.4 100% 96 30.06 0.0
23 15:15 W 5 10.00 NULL NULL 80.6 80.6 100% 89 30.07 0.0
23 14:55 SW 6 10.00 NULL NULL 82.4 82.4 100% 96 30.07 0.0
23 14:35 S 5 10.00 NULL NULL 80.6 80.6 100% 89 30.08 0.0
23 14:15 SW 6 10.00 NULL NULL 80.6 80.6 100% 89 30.08 0.0
23 13:55 SW 5 10.00 NULL NULL 80.6 80.6 100% 89 30.08 0.0
23 13:35 SW 5 10.00 NULL NULL 80.6 80.6 100% 89 30.09 0.0
23 13:15 W 5 7.00 NULL NULL 78.8 78.8 100% 83 30.09 0.0
23 12:55 SW 6 10.00 NULL NULL 78.8 78.8 100% 83 30.09 0.0
23 12:35 W 5 10.00 NULL NULL 80.6 80.6 100% 89 30.1 0.0
23 12:15 Calm 10.00 NULL NULL 80.6 80.6 100% 89 30.1 0.0
23 11:55 Calm 10.00 NULL NULL 80.6 80.6 100% 89 30.09 0.0
23 11:35 NW 3 10.00 NULL NULL 80.6 80.6 100% 89 30.09 0.0
23 11:15 W 5 10.00 NULL NULL 80.6 80.6 100% 89 30.09 0.0
23 10:55 Calm 10.00 NULL NULL 78.8 78.8 100% 83 30.09 0.0 0.02
23 10:35 Calm 10.00 NULL NULL 77 77 100% 78 30.09 0.0
23 09:55 Calm 2.00 Fog/Mist NULL 77 77 100% 78 30.08 0.0
23 09:35 Calm 9.00 NULL NULL 77 77 100% 78 30.08 0.0
23 09:15 Calm 8.00 NULL NULL 77 77 100% 78 30.08 0.0
23 08:55 Calm 7.00 NULL NULL 77 77 100% 78 30.07 0.0
23 08:15 Calm 6.00 Haze NULL 75.2 71.6 89% 75 30.07 0.0
23 07:55 Calm 4.00 Haze NULL 75.2 0 0% 30.07 0.0
23 07:35 Calm 3.00 Fog/Mist NULL 75.2 0 0% 30.07 0.0
23 07:15 Calm 5.00 Haze NULL 75.2 0 0% 30.06 0.0
23 06:55 Calm 3.00 Fog/Mist NULL 75.2 0 0% 30.05 0.0 0.01
23 06:35 Calm 1.50 Fog/Mist NULL 75.2 0 0% 30.05 0.0
23 06:15 Calm 1.50 Fog/Mist NULL 75.2 0 0% 30.05 0.0
23 05:55 Calm 2.00 Fog/Mist NULL 75.2 0 0% 30.04 0.0
23 05:35 Calm 2.00 Fog/Mist NULL 75.2 0 0% 30.04 0.0
23 05:15 Calm 2.50 Fog/Mist NULL 75.2 0 0% 30.03 0.0
23 04:55 Calm 2.00 Fog/Mist NULL 75.2 0 0% 30.02 0.0
23 04:35 Calm 2.50 Fog/Mist NULL 75.2 0 0% 30.02 0.0
23 04:15 Calm 3.00 Fog/Mist NULL 75.2 0 0% 30.02 0.0
23 03:55 Calm 3.00 Fog/Mist NULL 75.2 0 0% 30.02 0.0
23 03:35 Calm 5.00 Haze NULL 75.2 0 0% 30.02 0.0
23 03:15 SW 3 3.00 Fog/Mist NULL 75.2 0 0% 30.02 0.0
23 02:55 S 3 6.00 Haze NULL 75.2 0 0% 30.02 0.0
23 02:35 S 5 7.00 NULL NULL 75.2 0 0% 30.02 0.0
23 02:15 S 3 7.00 NULL NULL 75.2 0 0% 30.02 0.0
23 01:55 Calm 7.00 NULL NULL 75.2 0 0% 30.02 0.0
23 01:35 Calm 5.00 Haze NULL 75.2 0 0% 30.02 0.0
23 01:15 W 3 8.00 NULL NULL 75.2 60.8 61% 77 30.02 0.0
23 00:55 Calm 7.00 NULL NULL 75.2 75.2 100% 73 30.03 0.0
23 00:35 Calm 7.00 NULL NULL 75.2 75.2 100% 73 30.03 0.0
23 00:15 Calm 8.00 NULL NULL 75.2 75.2 100% 73 30.03 0.0
22 23:35 Calm 8.00 NULL NULL 77 77 100% 78 30.03 0.0
22 23:15 W 6 9.00 NULL NULL 77 77 100% 78 30.03 0.0
22 22:55 W 3 5.00 Fog/Mist NULL 77 77 100% 78 30.03 0.0
22 22:35 Calm 9.00 NULL NULL 77 77 100% 78 30.02 0.0
22 22:15 Calm 10.00 NULL NULL 77 77 100% 78 30.02 0.0
22 21:55 SE 6 10.00 NULL NULL 78.8 78.8 100% 83 30.02 0.0
22 21:15 NE 5 10.00 NULL NULL 78.8 78.8 100% 83 30.01 0.0
22 20:35 N 8 10.00 NULL NULL 80.6 80.6 100% 89 30 0.0
22 20:15 Calm 10.00 NULL NULL 82.4 82.4 100% 96 30 0.0
22 19:55 Calm 10.00 NULL NULL 82.4 82.4 100% 96 29.99 0.0
22 19:35 Calm 10.00 NULL NULL 84.2 84.2 100% 104 29.98 0.0
22 19:15 Calm 10.00 NULL NULL 84.2 84.2 100% 104 29.98 0.0
22 18:55 Calm 10.00 NULL NULL 86 86 100% 112 29.98 0.0
22 18:35 Calm 10.00 NULL NULL 86 86 100% 112 29.98 0.0
22 18:15 Calm 10.00 NULL NULL 86 86 100% 112 29.97 0.0
22 17:55 Calm 10.00 NULL NULL 89.6 89.6 100% 129 29.96 0.0
22 17:35 Calm 10.00 NULL NULL 87.8 87.8 100% 120 29.96 0.0
22 17:15 Calm 10.00 NULL NULL 89.6 89.6 100% 129 29.96 0.0
22 16:55 W 5 10.00 NULL NULL 87.8 87.8 100% 120 29.96 0.0
22 16:35 W 6 10.00 NULL NULL 87.8 87.8 100% 120 29.95 0.0
22 16:15 W 5 10.00 NULL NULL 87.8 87.8 100% 120 29.95 0.0
22 15:55 NW 3 10.00 NULL NULL 87.8 87.8 100% 120 29.96 0.0
22 15:35 Vrbl 3 10.00 NULL NULL 89.6 89.6 100% 129 29.97 0.0
22 15:15 W 3 10.00 NULL NULL 87.8 87.8 100% 120 29.98 0.0
22 14:55 Calm 10.00 NULL NULL 87.8 87.8 100% 120 29.98 0.0
22 14:35 Vrbl 5 10.00 NULL NULL 89.6 89.6 100% 129 29.99 0.0
22 14:15 W 5 10.00 NULL NULL 89.6 89.6 100% 129 30 0.0
22 13:55 Calm 10.00 NULL NULL 87.8 87.8 100% 120 30 0.0
22 13:35 Calm 10.00 NULL NULL 87.8 87.8 100% 120 30.01 0.0
22 13:15 SW 5 10.00 NULL NULL 87.8 87.8 100% 120 30.01 0.0
22 12:55 Calm 10.00 NULL NULL 87.8 87.8 100% 120 30.02 0.0
22 12:35 W 6 10.00 NULL NULL 87.8 87.8 100% 120 30.03 0.0
22 12:15 SW 6 10.00 NULL NULL 89.6 89.6 100% 129 30.03 0.0
22 11:55 Calm 10.00 NULL NULL 87.8 87.8 100% 120 30.03 0.0
22 11:35 NW 6 10.00 NULL NULL 87.8 87.8 100% 120 30.03 0.0
22 11:15 W 3 10.00 NULL NULL 87.8 87.8 100% 120 30.03 0.0
22 10:55 Vrbl 3 10.00 NULL NULL 86 86 100% 112 30.03 0.0
22 10:35 W 5 10.00 NULL NULL 86 86 100% 112 30.03 0.0
22 10:15 Calm 10.00 NULL NULL 84.2 84.2 100% 104 30.03 0.0
22 09:55 Calm 10.00 NULL NULL 84.2 84.2 100% 104 30.03 0.0
22 09:15 Calm 10.00 NULL NULL 80.6 80.6 100% 89 30.02 0.0
22 08:55 Calm 8.00 NULL NULL 80.6 80.6 100% 89 30.02 0.0
22 08:35 Calm 8.00 NULL NULL 78.8 78.8 100% 83 30.02 0.0
22 08:15 NW 3 10.00 NULL NULL 77 77 100% 78 30.02 0.0
22 07:55 Calm 10.00 NULL NULL 75.2 0 0% 30.01 0.0
22 07:35 Calm 7.00 NULL NULL 73.4 0 0% 30.01 0.0
22 07:15 Calm 4.00 Haze NULL 71.6 0 0% 30 0.0
22 06:55 Calm 4.00 Haze NULL 71.6 0 0% 30 0.0
22 06:35 Calm 4.00 Haze NULL 69.8 0 0% 29.99 0.0
22 06:15 Calm 6.00 Haze NULL 71.6 0 0% 29.99 0.0
22 05:55 Calm 5.00 Haze NULL 71.6 0 0% 29.98 0.0
22 05:35 W 3 6.00 Haze NULL 71.6 0 0% 29.98 0.0
22 05:15 W 5 6.00 Haze NULL 71.6 0 0% 29.98 0.0
22 04:55 Calm 7.00 NULL NULL 71.6 0 0% 29.98 0.0
22 04:35 Calm 8.00 NULL NULL 71.6 0 0% 29.98 0.0
22 04:15 Calm 9.00 NULL NULL 73.4 0 0% 29.98 0.0
22 03:55 Calm 9.00 NULL NULL 73.4 0 0% 29.98 0.0
22 03:15 NW 3 10.00 NULL NULL 73.4 0 0% 29.98 0.0
22 02:55 Calm 9.00 NULL NULL 73.4 0 0% 29.99 0.0
22 02:35 Calm 10.00 NULL NULL 73.4 0 0% 29.99 0.0
22 02:15 Calm 10.00 NULL NULL 73.4 0 0% 30 0.0
22 01:55 Calm 10.00 NULL NULL 73.4 0 0% 30 0.0
22 01:35 NW 3 10.00 NULL NULL 75.2 0 0% 30 0.0
22 01:15 NW 5 10.00 NULL NULL 75.2 0 0% 30 0.0
22 00:55 NW 5 10.00 NULL NULL 73.4 0 0% 30.01 0.0
22 00:35 Calm 10.00 NULL NULL 73.4 0 0% 30.01 0.0
22 00:15 Calm 10.00 NULL NULL 73.4 0 0% 30.01 0.0
21 23:55 Calm 10.00 NULL NULL 73.4 0 0% 30 0.0
21 23:15 NW 6 10.00 NULL NULL 75.2 0 0% 30 0.0
21 22:55 NW 7 10.00 NULL NULL 75.2 75.2 100% 73 30 0.0
21 22:35 W 6 10.00 NULL NULL 77 77 100% 78 30 0.0
21 22:15 W 6 10.00 NULL NULL 77 77 100% 78 30 0.0
21 21:55 W 5 10.00 NULL NULL 77 77 100% 78 29.99 0.0
21 21:35 W 6 10.00 NULL NULL 78.8 78.8 100% 83 29.99 0.0
21 21:15 NW 5 10.00 NULL NULL 78.8 78.8 100% 83 29.99 0.0
21 20:55 W 5 10.00 NULL NULL 80.6 80.6 100% 89 29.99 0.0
21 20:35 W 6 10.00 NULL NULL 80.6 80.6 100% 89 29.99 0.0
21 20:15 Calm 10.00 NULL NULL 80.6 80.6 100% 89 29.98 0.0
21 19:55 NW 5 10.00 NULL NULL 82.4 82.4 100% 96 29.99 0.0
21 19:35 NW 5 10.00 NULL NULL 84.2 84.2 100% 104 29.98 0.0
21 19:15 NW 5 10.00 NULL NULL 86 86 100% 112 29.98 0.0
21 18:55 NW 6 10.00 NULL NULL 86 86 100% 112 29.98 0.0
21 18:35 NW 6 10.00 NULL NULL 87.8 87.8 100% 120 29.97 0.0
21 18:15 NW 8 10.00 NULL NULL 87.8 87.8 100% 120 29.97 0.0
21 17:55 NW 7 10.00 NULL NULL 87.8 87.8 100% 120 29.96 0.0
21 17:35 W 7 10.00 NULL NULL 87.8 87.8 100% 120 29.96 0.0
21 16:35 W 9 10.00 NULL NULL 89.6 89.6 100% 129 29.97 0.0
21 16:15 Calm 10.00 NULL NULL 89.6 89.6 100% 129 29.98 0.0
21 15:55 W 9 10.00 NULL NULL 89.6 89.6 100% 129 29.98 0.0
21 15:35 NW 9 10.00 NULL NULL 89.6 89.6 100% 129 29.98 0.0
21 15:15 W 12 10.00 NULL NULL 89.6 89.6 100% 129 29.98 0.0
21 14:55 NW 5 10.00 NULL NULL 89.6 89.6 100% 129 29.98 0.0
21 14:35 W 7 10.00 NULL NULL 87.8 87.8 100% 120 29.99 0.0
21 14:15 Vrbl 6 G 14 10.00 NULL NULL 87.8 87.8 100% 120 30 0.0
21 13:55 W 8 10.00 NULL NULL 87.8 87.8 100% 120 30.01 0.0
21 13:35 Vrbl 6 G 12 10.00 NULL NULL 87.8 87.8 100% 120 30.01 0.0
21 13:15 NW 8 10.00 NULL NULL 87.8 87.8 100% 120 30.02 0.0
21 12:55 W 7 10.00 NULL NULL 87.8 87.8 100% 120 30.03 0.0
21 12:35 Calm 10.00 NULL NULL 87.8 87.8 100% 120 30.04 0.0
21 12:15 NW 7 10.00 NULL NULL 86 86 100% 112 30.04 0.0
21 11:55 Calm 10.00 NULL NULL 86 86 100% 112 30.04 0.0
21 11:35 Calm 10.00 NULL NULL 86 86 100% 112 30.04 0.0
21 11:15 Vrbl 5 10.00 NULL NULL 84.2 84.2 100% 104 30.05 0.0
21 10:55 NW 3 10.00 NULL NULL 82.4 82.4 100% 96 30.05 0.0
21 10:35 Vrbl 6 10.00 NULL NULL 84.2 84.2 100% 104 30.05 0.0
21 09:55 Calm 10.00 NULL NULL 82.4 82.4 100% 96 30.05 0.0
21 09:35 Calm 10.00 NULL NULL 80.6 80.6 100% 89 30.04 0.0
21 09:15 Calm 10.00 NULL NULL 78.8 78.8 100% 83 30.04 0.0
21 08:55 Calm 10.00 NULL NULL 78.8 78.8 100% 83 30.04 0.0
21 08:35 Calm 10.00 NULL NULL 78.8 78.8 100% 83 30.04 0.0
21 08:15 N 3 10.00 NULL NULL 77 77 100% 78 30.04 0.0
21 07:55 Calm 10.00 NULL NULL 75.2 0 0% 30.04 0.0
21 07:35 Calm 10.00 NULL NULL 73.4 0 0% 30.04 0.0
21 07:15 Calm 9.00 NULL NULL 71.6 0 0% 30.04 0.0
21 06:55 Calm 7.00 NULL NULL 71.6 0 0% 30.04 0.0
21 06:35 Calm 2.00 Fog/Mist NULL 68 0 0% 30.03 0.0
21 06:15 Calm 2.50 Fog/Mist NULL 68 0 0% 30.02 0.0
21 05:35 Calm 4.00 Haze NULL 68 0 0% 30.02 0.0
21 05:15 Calm 7.00 NULL NULL 69.8 0 0% 30.01 0.0
21 04:55 Calm 8.00 NULL NULL 69.8 0 0% 30.01 0.0
21 04:35 Calm 10.00 NULL NULL 69.8 0 0% 30.01 0.0
21 04:15 Calm 10.00 NULL NULL 69.8 0 0% 30.02 0.0
21 03:55 NW 5 9.00 NULL NULL 69.8 0 0% 30.02 0.0
21 03:35 Calm 10.00 NULL NULL 69.8 0 0% 30.02 0.0
21 03:15 NW 5 10.00 NULL NULL 69.8 0 0% 30.02 0.0
21 02:55 Calm 10.00 NULL NULL 69.8 0 0% 30.02 0.0
21 02:15 NW 3 10.00 NULL NULL 69.8 0 0% 30.03 0.0
21 01:55 Calm 10.00 NULL NULL 71.6 0 0% 30.04 0.0
21 01:35 Calm 10.00 NULL NULL 71.6 0 0% 30.03 0.0
21 01:15 W 3 10.00 NULL NULL 71.6 0 0% 30.04 0.0
21 00:55 W 5 10.00 NULL NULL 71.6 0 0% 30.04 0.0
21 00:35 Calm 10.00 NULL NULL 71.6 0 0% 30.04 0.0
20 22:15 N 5 10.00 NULL NULL 73.4 0 0% 30.03 0.0
20 21:55 Calm 10.00 NULL NULL 75.2 0 0% 30.03 0.0
20 21:35 Calm 10.00 NULL NULL 75.2 0 0% 30.02 0.0
20 21:15 Calm 10.00 NULL NULL 75.2 0 0% 30.01 0.0
20 20:55 Calm 10.00 NULL NULL 77 77 100% 78 30.02 0.0
20 20:15 NW 3 10.00 NULL NULL 78.8 78.8 100% 83 30.01 0.0
20 19:55 Calm 10.00 NULL NULL 80.6 80.6 100% 89 30.01 0.0
20 19:35 NW 3 10.00 NULL NULL 84.2 84.2 100% 104 30.01 0.0
20 19:15 NW 7 10.00 NULL NULL 86 86 100% 112 30 0.0
Date Time (cdt) Wind (mph) Vis. (mi.) Weather Sky Cond. Air Dwpt Max. Min. Relative Humidity Wind Chill (°F) Heat Index (°F) altimeter (in) sea level (mb) 1 hr 3 hr 6 hr
6 hour
Temperature (ºF) Pressure Precipitation (in)